ELECTRON KICK STAGE R/B, 53354

Orbit data source: Space-Track

ELECTRON KICK STAGE R/B, 53354 is space debris in LEO originally from a launch on Thu, 04 Aug 2022 UTC launched from the Rocket Lab Launch Complex (RLLC). Debris objects in space refer to the collection of defunct objects orbiting the Earth. Examples of debris include non-operational satellites, rocket bodies, and fragments generated from explosions, collisions, or faulty payload assembly.

Loading next visibility...
Identifier
53354, 2022-091C
Orbit
LEO
Country
Flag of USUS
Related business
Manufacturer
Rocket Lab
Mission
Spacecraft
Bus & Motor
KICK STAGE, CURIE
Mass
40 kg wet, ~40 kg dry
Launch date (UTC)
2022-08-04 (4 years ago)
Launch vehicle
Unknown
Launch site
Rocket Lab Launch Complex (RLLC)
Object type
Payload
Rocket body
Debris
Shape & HBR
Trunc Cone, 0.7 m
Radar Cross Section
0.760 m², Medium (>0.1 m² and < 1m²)

Expand to show TLE details & history
Last TLE update: 2 days ago

TLE from 2 days ago
0 ELECTRON KICK STAGE R/B
1 53354U 22091C   26171.34357785  .00002865  00000-0  28546-3 0  9992
2 53354  70.0022 116.6034 0001588 155.5017 204.6215 14.92723648114855
Epoch: 2026-06-20T08:14Z
TLE epoch observation values (Epoch: 2026-06-20T08:14:45.126Z)
Latitude
-0°
Longitude
84.35582°
Altitude
592.871 km
Speed
7.563 km/s
True Right ascension
07h 46m 24s
True Declination
0° 00' 00"
Sunlit
Object was in daylight at epoch
Visualization orbit readout
Latitude
Unknown
Longitude
Unknown
Altitude
Unknown
Speed
Unknown
Apparent Right ascension
Unknown
Apparent Declination
Unknown
Sunlit
N/A
Visualization observer readout
Local Sidereal Time
23:07:44
Azimuth
Unknown
Elevation
Unknown
Doppler factor
Unknown
Orbital elements
Apogee altitude
588.507 km
Perigee altitude
586.294 km
Semi-major axis
6,965.537 km
Eccentricity
0.00016
Inclination
70.0022°
RAAN
116.6034°
Arg. of periapsis
155.5017°
True anomaly
204.61392°
Mean anomaly
204.6215°
Eccentric anomaly
204.61771°
Mean motion
3.73346 °/min
Orbital period
96.43 mins
BSTAR
0.00028546
Loading maneuver chart data...
Computing Atmospheric mass density...
Loading historical data...
Loading historical data...
Loading historical data...
Loading historical data...
Loading historical data...
Loading historical data...
Loading historical data...
Other satellites on launch #91 in the year 2022 (2022-08-04 UTC)

Documentation

Showing up to 5 results
|